| time (UTC) | temp C | wind direction | speed KPH | gust KPH | rain 1hr cm | rain 24hr cm | rain mn cm | humidity % | barometer mb |
| 20260506211831 | 7 | 326 | 9.7 | 20.9 | 0.00 | 1.07 | 0.99 | 96 | 1005.6 |
| 20260506210326 | 7 | 278 | 8.0 | 14.5 | 0.03 | 1.19 | 0.99 | 97 | 1005.2 |
| 20260506204836 | 7 | 288 | 6.4 | 12.9 | 0.03 | 1.19 | 0.99 | 97 | 1004.9 |
| 20260506203332 | 7 | 39 | 8.0 | 12.9 | 0.05 | 1.19 | 0.99 | 98 | 1004.7 |
| 20260506201823 | 7 | 355 | 4.8 | 11.3 | 0.08 | 1.19 | 0.99 | 98 | 1004.9 |
| 20260506200336 | 7 | 313 | 4.8 | 11.3 | 0.08 | 1.35 | 0.97 | 98 | 1004.7 |
| 20260506194830 | 7 | 313 | 4.8 | 11.3 | 0.10 | 1.35 | 0.97 | 98 | 1004.7 |
| 20260506193321 | 8 | 313 | 8.0 | 16.1 | 0.05 | 1.30 | 0.91 | 98 | 1004.7 |
| 20260506191835 | 8 | 5 | 1.6 | 6.4 | 0.05 | 1.30 | 0.91 | 98 | 1004.3 |
| 20260506190329 | 8 | 342 | 3.2 | 6.4 | 0.05 | 1.27 | 0.89 | 98 | 1004.1 |
| 20260506184824 | 8 | 360 | 3.2 | 8.0 | 0.03 | 1.24 | 0.86 | 98 | 1004.1 |
| 20260506183339 | 8 | 351 | 3.2 | 6.4 | 0.05 | 1.24 | 0.86 | 98 | 1004.1 |
| 20260506181829 | 8 | 344 | 3.2 | 6.4 | 0.05 | 1.24 | 0.86 | 98 | 1004.0 |
| 20260506180324 | 7 | 360 | 1.6 | 4.8 | 0.05 | 1.22 | 0.84 | 98 | 1004.0 |
| 20260506174835 | 7 | 298 | 4.8 | 8.0 | 0.08 | 1.22 | 0.84 | 98 | 1003.8 |
| 20260506173330 | 7 | 29 | 3.2 | 6.4 | 0.08 | 1.19 | 0.81 | 98 | 1003.8 |
| 20260506171820 | 7 | 324 | 3.2 | 6.4 | 0.08 | 1.19 | 0.81 | 98 | 1004.0 |
| 20260506170335 | 7 | 32 | 4.8 | 9.7 | 0.05 | 1.17 | 0.79 | 98 | 1004.1 |
| 20260506164828 | 7 | 31 | 4.8 | 9.7 | 0.05 | 1.14 | 0.76 | 98 | 1003.9 |
| 20260506163322 | 7 | 38 | 6.4 | 20.9 | 0.05 | 1.12 | 0.74 | 97 | 1003.6 |
| 20260506161833 | 10 | 322 | 11.3 | 14.5 | 0.10 | 1.12 | 0.74 | 97 | 1003.4 |
| 20260506160324 | 13 | 109 | 0.0 | 6.4 | 0.13 | 1.12 | 0.74 | 99 | 1003.3 |
| 20260506154837 | 13 | 146 | 1.6 | 8.0 | 0.10 | 1.09 | 0.71 | 99 | 1003.4 |
| 20260506153328 | 12 | 88 | 3.2 | 6.4 | 0.10 | 1.07 | 0.69 | 99 | 1003.5 |
| 20260506151826 | 12 | 163 | 1.6 | 6.4 | 0.05 | 1.02 | 0.64 | 99 | 1003.5 |
| 20260506150336 | 12 | 115 | 3.2 | 6.4 | 0.05 | 0.99 | 0.61 | 99 | 1003.1 |
| 20260506144830 | 12 | 89 | 1.6 | 4.8 | 0.08 | 0.99 | 0.61 | 99 | 1003.3 |
| 20260506143319 | 11 | 110 | 1.6 | 4.8 | 0.10 | 0.97 | 0.58 | 99 | 1003.5 |
| 20260506141830 | 11 | 82 | 1.6 | 3.2 | 0.20 | 0.97 | 0.58 | 99 | 1003.6 |
| 20260506140326 | 10 | 360 | 0.0 | 3.2 | 0.28 | 0.94 | 0.56 | 99 | 1003.7 |
| 20260506134816 | 10 | 355 | 1.6 | 3.2 | 0.30 | 0.91 | 0.53 | 98 | 1003.9 |
| 20260506133334 | 10 | 44 | 0.0 | 6.4 | 0.28 | 0.86 | 0.48 | 98 | 1004.1 |
| 20260506131825 | 9 | 113 | 1.6 | 3.2 | 0.20 | 0.76 | 0.38 | 98 | 1004.2 |
| 20260506130320 | 9 | 148 | 0.0 | 6.4 | 0.10 | 0.66 | 0.28 | 98 | 1004.0 |
| 20260506124831 | 9 | 311 | 0.0 | 1.6 | 0.10 | 0.61 | 0.23 | 98 | 1003.8 |
| 20260506123321 | 8 | 21 | 0.0 | 1.6 | 0.08 | 0.58 | 0.20 | 98 | 1003.8 |
| 20260506121836 | 8 | 22 | 0.0 | 1.6 | 0.08 | 0.56 | 0.18 | 98 | 1004.1 |
| 20260506120327 | 8 | 360 | 0.0 | 1.6 | 0.08 | 0.56 | 0.18 | 98 | 1004.5 |
| 20260506114822 | 8 | 360 | 0.0 | 1.6 | 0.05 | 0.51 | 0.13 | 98 | 1004.6 |
| 20260506113333 | 8 | 360 | 0.0 | 1.6 | 0.05 | 0.51 | 0.13 | 98 | 1004.8 |
| 20260506111827 | 8 | 355 | 1.6 | 4.8 | 0.03 | 0.48 | 0.10 | 98 | 1005.1 |
| 20260506110337 | 8 | 355 | 3.2 | 6.4 | 0.05 | 0.51 | 0.10 | 98 | 1005.2 |
| 20260506104828 | 8 | 26 | 1.6 | 9.7 | 0.05 | 0.48 | 0.08 | 98 | 1004.9 |
| 20260506103326 | 8 | 10 | 1.6 | 6.4 | 0.05 | 0.48 | 0.08 | 98 | 1004.6 |
| 20260506101836 | 8 | 242 | 1.6 | 6.4 | 0.08 | 0.48 | 0.08 | 98 | 1004.4 |
| 20260506100330 | 8 | 355 | 3.2 | 11.3 | 0.05 | 0.46 | 0.05 | 98 | 1004.5 |
| 20260506094821 | 8 | 5 | 1.6 | 6.4 | 0.03 | 0.43 | 0.03 | 98 | 1004.7 |
| 20260506093334 | 8 | 46 | 1.6 | 3.2 | 0.03 | 0.43 | 0.03 | 98 | 1004.6 |
| 20260506091828 | 8 | 355 | 1.6 | 3.2 | 0.00 | 0.41 | 0.00 | 98 | 1004.7 |
| 20260506090322 | 8 | 331 | 1.6 | 6.4 | 0.00 | 0.41 | 0.00 | 98 | 1004.7 |
| 20260506084832 | 8 | 331 | 1.6 | 3.2 | 0.00 | 0.41 | 0.00 | 98 | 1004.6 |
| 20260506083322 | 8 | 269 | 0.0 | 3.2 | 0.00 | 0.41 | 0.00 | 97 | 1004.7 |
| 20260506081836 | 8 | 309 | 0.0 | 3.2 | 0.00 | 0.41 | 0.00 | 97 | 1004.7 |
| 20260506080326 | 8 | 5 | 3.2 | 4.8 | 0.00 | 0.58 | 0.00 | 97 | 1004.8 |
| 20260506073338 | 8 | 51 | 1.6 | 9.7 | 0.00 | 0.58 | 0.00 | 97 | 1005.3 |
| 20260506071833 | 8 | 340 | 4.8 | 9.7 | 0.00 | 0.58 | 0.00 | 97 | 1005.5 |
| 20260506070328 | 8 | 321 | 3.2 | 6.4 | 0.00 | 0.58 | 0.00 | 97 | 1005.7 |
| 20260506061828 | 8 | 350 | 4.8 | 8.0 | 0.00 | 0.58 | 0.00 | 97 | 1006.3 |
| 20260506060322 | 7 | 17 | 1.6 | 3.2 | 0.00 | 0.58 | 0.00 | 96 | 1006.3 |
| 20260506050332 | 8 | 336 | 0.0 | 6.4 | 0.00 | 0.58 | 0.00 | 94 | 1007.1 |
| 20260506044826 | 8 | 336 | 3.2 | 6.4 | 0.00 | 0.58 | 0.00 | 94 | 1006.9 |
| 20260506043337 | 8 | 24 | 4.8 | 8.0 | 0.00 | 0.58 | 0.00 | 93 | 1007.0 |
| 20260506041831 | 9 | 315 | 1.6 | 8.0 | 0.00 | 0.58 | 0.00 | 93 | 1007.2 |
| 20260506040322 | 9 | 49 | 3.2 | 8.0 | 0.00 | 0.58 | 0.58 | 92 | 1007.4 |
| 20260506034835 | 10 | 299 | 9.7 | 14.5 | 0.00 | 0.58 | 0.58 | 93 | 1007.3 |
| 20260506033325 | 10 | 19 | 1.6 | 6.4 | 0.00 | 0.58 | 0.58 | 93 | 1007.3 |
| 20260506031821 | 10 | 323 | 0.0 | 3.2 | 0.00 | 0.58 | 0.58 | 93 | 1007.4 |
| 20260506030330 | 11 | 343 | 1.6 | 8.0 | 0.00 | 0.58 | 0.58 | 93 | 1007.4 |
| 20260506024824 | 11 | 345 | 6.4 | 9.7 | 0.00 | 0.58 | 0.58 | 93 | 1007.4 |
| 20260506023338 | 11 | 9 | 3.2 | 6.4 | 0.00 | 0.58 | 0.58 | 93 | 1007.6 |
| 20260506021828 | 11 | 350 | 3.2 | 4.8 | 0.00 | 0.58 | 0.58 | 94 | 1007.5 |
| 20260506020322 | 11 | 302 | 1.6 | 4.8 | 0.00 | 0.58 | 0.58 | 94 | 1006.9 |
| 20260506014832 | 11 | 28 | 0.0 | 4.8 | 0.00 | 0.58 | 0.58 | 94 | 1006.9 |
| 20260506013325 | 12 | 106 | 1.6 | 11.3 | 0.00 | 0.58 | 0.58 | 93 | 1006.7 |
| 20260506011835 | 12 | 328 | 6.4 | 16.1 | 0.03 | 0.58 | 0.58 | 93 | 1006.7 |
| 20260506010325 | 12 | 342 | 8.0 | 16.1 | 0.03 | 0.58 | 0.58 | 93 | 1006.3 |
| 20260506004820 | 13 | 355 | 9.7 | 27.4 | 0.03 | 0.58 | 0.58 | 94 | 1006.1 |
| 20260506003331 | 13 | 265 | 3.2 | 4.8 | 0.03 | 0.58 | 0.58 | 97 | 1005.7 |
| 20260506001828 | 14 | 271 | 1.6 | 3.2 | 0.03 | 0.56 | 0.56 | 97 | 1005.0 |
| 20260506000338 | 15 | 162 | 0.0 | 1.6 | 0.03 | 0.56 | 0.56 | 96 | 1004.7 |
| 20260505234834 | 15 | 167 | 1.6 | 3.2 | 0.05 | 0.56 | 0.56 | 96 | 1004.7 |
| 20260505233325 | 15 | 281 | 0.0 | 1.6 | 0.05 | 0.56 | 0.56 | 95 | 1004.5 |
| 20260505231836 | 16 | 89 | 1.6 | 3.2 | 0.03 | 0.53 | 0.53 | 94 | 1004.6 |
| 20260505230330 | 16 | 115 | 1.6 | 4.8 | 0.03 | 0.53 | 0.53 | 92 | 1004.6 |
| 20260505224821 | 16 | 103 | 3.2 | 6.4 | 0.00 | 0.51 | 0.51 | 93 | 1004.1 |
| 20260505223339 | 17 | 98 | 1.6 | 3.2 | 0.00 | 0.51 | 0.51 | 90 | 1004.1 |
| 20260505221829 | 17 | 157 | 1.6 | 6.4 | 0.00 | 0.51 | 0.51 | 88 | 1004.1 |
| 20260505220322 | 18 | 123 | 3.2 | 9.7 | 0.00 | 0.51 | 0.51 | 86 | 1004.1 |
| 20260505214834 | 18 | 229 | 1.6 | 6.4 | 0.00 | 0.51 | 0.51 | 87 | 1003.6 |
| 20260505213327 | 17 | 11 | 1.6 | 4.8 | 0.03 | 0.51 | 0.51 | 92 | 1003.6 |